Location: Avon School (historical)
(37.7514°N, 90.2201°W)
Time: 02:43:29
(UTC+00:00)

Explorer 7 - Pass Details

Date: 11 November 2024
Orbit: 456 x 598 km, 50.3° (Epoch: 03 December)

Event Time Altitude Azimuth Distance (km) Brightness Sun altitude
Exits shadow 11:33:00 17° 313° (NW) 1,440 8.4 -13.0°
Maximum altitude 11:34:35 20° 343° (NNW) 1,298 8.4 -12.7°
Drops below altitude 10° 11:37:47 10° 32° (NNE) 1,863 9.8 -12.1°
Sets 11:40:35 0° 49° (NE) 2,789 11.0 -11.5°
